Le nostre stazioni meteo in Italia

Pubblicità
Il mio iltempo24.it
Logan Botanic Garden, Gran Bretagna (99193): Temperatura & dewpoint: 10.02.2019 06:00:00 - 16.02.2019 06:00:00 (GMT)Logan Botanic Garden, Gran Bretagna (99193): Temperatura -20cm: 10.02.2019 06:00:00 - 16.02.2019 06:00:00 (GMT)Logan Botanic Garden, Gran Bretagna (99193): precipitazioni: 10.02.2019 06:00:00 - 16.02.2019 06:00:00 (GMT)
Data & Tempo tt [°C] td [°C] tt -20cm [°C] rr [mm]
16.02.2019 06:00:00 9,0 7,0 - 0,0
16.02.2019 05:00:00 9,0 6,7 - 0,0
16.02.2019 04:00:00 9,2 7,0 - 0,0
16.02.2019 03:00:00 9,5 7,2 - 0,0
16.02.2019 02:00:00 9,3 7,4 - 0,0
16.02.2019 01:00:00 9,4 7,5 - 0,0
16.02.2019 00:00:00 9,5 8,3 - 0,0
15.02.2019 23:00:00 9,3 8,9 - 0,0
15.02.2019 22:00:00 9,8 9,2 - 0,0
15.02.2019 21:00:00 10,1 8,9 - 0,0
15.02.2019 20:00:00 10,2 8,7 - 0,0
15.02.2019 19:00:00 9,9 7,9 - 0,0
15.02.2019 18:00:00 9,9 7,2 - 0,0
15.02.2019 17:00:00 9,3 6,8 - 0,0
15.02.2019 16:00:00 9,4 7,0 - 0,0
15.02.2019 15:00:00 9,3 7,4 - 0,0
15.02.2019 14:00:00 9,2 7,0 - 0,0
15.02.2019 13:00:00 9,3 7,0 - 0,0
15.02.2019 12:00:00 9,3 7,1 - 0,0
15.02.2019 11:00:00 8,6 6,5 - 0,0
15.02.2019 10:00:00 8,6 5,5 - 0,0
15.02.2019 09:00:00 7,9 5,3 7,0 0,0
15.02.2019 08:00:00 7,7 5,5 - 0,0
15.02.2019 07:00:00 7,6 5,6 - 0,0
15.02.2019 06:00:00 6,7 4,6 - 0,0
15.02.2019 05:00:00 6,4 4,5 - 0,0
15.02.2019 04:00:00 6,4 4,5 - 0,0
15.02.2019 03:00:00 7,0 5,0 - 0,0
15.02.2019 02:00:00 7,1 4,9 - 0,0
15.02.2019 01:00:00 7,1 4,6 - 0,0
15.02.2019 00:00:00 7,4 4,7 - 0,0
14.02.2019 23:00:00 7,5 4,2 - 0,0
14.02.2019 22:00:00 7,7 4,7 - 0,0
14.02.2019 21:00:00 7,3 5,0 - 0,0
14.02.2019 20:00:00 6,9 4,9 - 0,0
14.02.2019 19:00:00 7,1 5,9 - 0,0
14.02.2019 18:00:00 7,7 6,1 - 0,0
14.02.2019 17:00:00 8,0 6,0 - 0,0
14.02.2019 16:00:00 8,3 6,3 - 0,0
14.02.2019 15:00:00 8,5 6,5 - 0,0
14.02.2019 14:00:00 8,7 6,8 - 0,0
14.02.2019 13:00:00 8,7 6,9 - 0,0
14.02.2019 12:00:00 9,1 7,1 - 0,0
14.02.2019 11:00:00 9,1 6,7 - 0,0
14.02.2019 10:00:00 9,2 6,9 - 0,0
14.02.2019 09:00:00 9,0 7,3 7,0 0,0
14.02.2019 08:00:00 8,5 7,2 - 0,0
14.02.2019 07:00:00 8,4 7,0 - 0,0
14.02.2019 06:00:00 8,6 7,3 - 0,0
14.02.2019 05:00:00 8,8 7,4 - 0,0
14.02.2019 04:00:00 8,8 7,4 - 0,0
14.02.2019 03:00:00 8,9 7,2 - 0,0
14.02.2019 02:00:00 9,0 7,5 - 0,0
14.02.2019 01:00:00 9,1 7,4 - 0,0
14.02.2019 00:00:00 9,2 7,3 - 0,0
13.02.2019 23:00:00 9,1 7,4 - 0,0
13.02.2019 22:00:00 9,1 7,6 - 0,0
13.02.2019 21:00:00 9,1 7,4 - 0,0
13.02.2019 20:00:00 9,1 7,4 - 0,0
13.02.2019 19:00:00 9,0 7,6 - 0,0
13.02.2019 18:00:00 9,0 7,5 - 0,0
13.02.2019 17:00:00 9,1 7,5 - 0,0
13.02.2019 16:00:00 9,2 7,5 - 0,0
13.02.2019 15:00:00 9,2 7,7 - 0,0
13.02.2019 14:00:00 9,2 7,6 - 0,0
13.02.2019 13:00:00 9,3 7,7 - 0,0
13.02.2019 12:00:00 9,5 7,8 - 0,0
13.02.2019 11:00:00 9,2 7,8 - 0,0
13.02.2019 10:00:00 9,1 7,9 - 0,0
13.02.2019 09:00:00 9,0 7,7 6,7 0,0
13.02.2019 08:00:00 8,9 7,6 - 0,0
13.02.2019 07:00:00 8,8 8,1 - 0,0
13.02.2019 06:00:00 9,0 8,4 - 0,0
13.02.2019 05:00:00 9,0 8,6 - 0,0
13.02.2019 04:00:00 9,0 8,6 - 0,0
13.02.2019 03:00:00 9,1 8,7 - 0,0
13.02.2019 02:00:00 9,1 8,6 - 0,0
13.02.2019 01:00:00 9,2 8,8 - 0,0
13.02.2019 00:00:00 9,4 9,1 - 0,0
12.02.2019 23:00:00 9,9 9,2 - 0,0
12.02.2019 22:00:00 9,3 8,8 - 0,0
12.02.2019 21:00:00 8,9 8,6 - 0,0
12.02.2019 20:00:00 8,7 8,4 - 0,0
12.02.2019 19:00:00 8,9 8,4 - 0,0
12.02.2019 18:00:00 9,4 8,7 - 0,0
12.02.2019 17:00:00 9,6 8,6 - 0,0
12.02.2019 16:00:00 9,8 8,8 - 0,0
12.02.2019 15:00:00 9,8 8,6 - 0,0
12.02.2019 14:00:00 9,9 8,5 - 0,0
12.02.2019 13:00:00 9,7 8,2 - 0,0
12.02.2019 12:00:00 9,4 8,2 - 0,0
12.02.2019 11:00:00 9,9 7,8 - 0,0
12.02.2019 10:00:00 9,4 7,6 - 0,0
12.02.2019 09:00:00 8,9 7,4 6,2 0,0
12.02.2019 08:00:00 8,9 7,2 - 0,0
12.02.2019 07:00:00 8,5 7,1 - 0,0
12.02.2019 06:00:00 8,9 7,3 - 0,0
12.02.2019 05:00:00 8,7 6,9 - 0,0
12.02.2019 04:00:00 8,3 6,9 - 0,0
12.02.2019 03:00:00 8,1 6,7 - 0,0
12.02.2019 02:00:00 8,0 6,3 - 0,0
12.02.2019 01:00:00 7,9 6,4 - 0,0
12.02.2019 00:00:00 8,3 6,8 - 0,0
11.02.2019 23:00:00 7,9 6,3 - 0,0
11.02.2019 22:00:00 7,9 6,5 - 0,0
11.02.2019 21:00:00 7,8 6,2 - 0,0
11.02.2019 20:00:00 7,8 6,1 - 0,0
11.02.2019 19:00:00 7,4 5,0 - 0,0
11.02.2019 18:00:00 6,7 4,4 - 0,0
11.02.2019 17:00:00 6,7 4,6 - 0,0
11.02.2019 16:00:00 6,8 4,4 - 0,0
11.02.2019 15:00:00 7,6 4,0 - 0,0
11.02.2019 14:00:00 8,3 3,9 - 0,0
11.02.2019 13:00:00 7,6 3,6 - 0,0
11.02.2019 12:00:00 7,6 3,2 - 0,0
11.02.2019 11:00:00 7,3 2,1 - 0,0
11.02.2019 10:00:00 5,1 2,0 - 0,0
11.02.2019 09:00:00 3,7 2,2 6,2 0,0
11.02.2019 08:00:00 3,3 2,0 - 0,0
11.02.2019 07:00:00 4,6 2,9 - 0,0
11.02.2019 06:00:00 5,6 3,6 - 0,0
11.02.2019 05:00:00 5,5 3,3 - 0,0
11.02.2019 04:00:00 6,5 4,5 - 0,0
11.02.2019 03:00:00 7,3 4,8 - 0,0
11.02.2019 02:00:00 6,4 4,1 - 0,0
11.02.2019 01:00:00 5,5 3,3 - 0,0
11.02.2019 00:00:00 5,4 3,3 - 0,0
10.02.2019 23:00:00 5,9 4,0 - 0,0
10.02.2019 22:00:00 6,0 3,5 - 0,0
10.02.2019 21:00:00 4,9 3,4 - 0,0
10.02.2019 20:00:00 5,1 3,6 - 0,0
10.02.2019 19:00:00 5,4 3,1 - 0,0
10.02.2019 18:00:00 5,1 3,1 - 0,4
10.02.2019 17:00:00 5,1 3,2 - 0,2
10.02.2019 16:00:00 5,2 2,4 - 0,0
10.02.2019 15:00:00 6,3 2,0 - 0,0
10.02.2019 14:00:00 7,4 2,1 - 0,0
10.02.2019 13:00:00 6,9 2,1 - 0,0
10.02.2019 12:00:00 6,5 2,0 - 0,0
10.02.2019 11:00:00 6,5 2,3 - 0,0
10.02.2019 10:00:00 5,7 1,8 - 0,0
10.02.2019 09:00:00 4,6 2,3 6,2 0,0
10.02.2019 08:00:00 4,6 2,7 - 0,0
10.02.2019 07:00:00 4,6 2,2 - 0,0
10.02.2019 06:00:00 4,7 2,1 - 0,0

tt = Temperatura
td = dewpoint
tt -20cm = Temperatura -20cm
rr = precipitazioni

Stazioni seguenti

WeatherPro
AMSI
MeteoEarth